Météo par heure à Aljaraque

Ce jour, 22 Octobre, Jeudi

Heure Température Précipitation Vent Pression Humidité
00:00 +18°C° 0.9 mm 4 m/s 756 mmHg 86%
01:00 +18°C° 0.6 mm 4 m/s 756 mmHg 87%
02:00 +18°C° 0.6 mm 4 m/s 755 mmHg 89%
03:00 +17°C° 0.6 mm 4 m/s 755 mmHg 90%
04:00 +17°C° 0.2 mm 3 m/s 755 mmHg 90%
05:00 +17°C° 0.2 mm 3 m/s 756 mmHg 89%
06:00 +17°C° 0.2 mm 2 m/s 756 mmHg 89%
07:00 +18°C° 0.4 mm 3 m/s 756 mmHg 83%
08:00 +19°C° 0.4 mm 4 m/s 757 mmHg 77%
09:00 +20°C° 0.4 mm 4 m/s 757 mmHg 71%
10:00 +21°C° 0.4 mm 5 m/s 757 mmHg 67%
11:00 +22°C° 0.4 mm 5 m/s 757 mmHg 62%
12:00 +23°C° 0.4 mm 6 m/s 757 mmHg 58%
13:00 +23°C° 0 mm 6 m/s 757 mmHg 57%
14:00 +23°C° 0 mm 6 m/s 757 mmHg 55%
15:00 +22°C° 0 mm 7 m/s 757 mmHg 54%
16:00 +21°C° 0 mm 6 m/s 757 mmHg 60%
17:00 +20°C° 0 mm 5 m/s 758 mmHg 66%
18:00 +17°C° 0 mm 5 m/s 758 mmHg 72%
19:00 +18°C° 0 mm 4 m/s 759 mmHg 75%
20:00 +17°C° 0 mm 4 m/s 760 mmHg 78%
21:00 +17°C° 0 mm 3 m/s 761 mmHg 81%
22:00 +17°C° 0 mm 3 m/s 761 mmHg 81%
23:00 +16°C° 0 mm 3 m/s 761 mmHg 82%

Demain, 23 Octobre, Vendredi

Heure Température Précipitation Vent Pression Humidité
00:00 +16°C° 0 mm 3 m/s 762 mmHg 83%
01:00 +16°C° 0 mm 3 m/s 762 mmHg 84%
02:00 +16°C° 0 mm 3 m/s 762 mmHg 84%
03:00 +16°C° 0 mm 3 m/s 762 mmHg 85%
04:00 +16°C° 0.2 mm 2 m/s 762 mmHg 87%
05:00 +15°C° 0.2 mm 2 m/s 763 mmHg 88%
06:00 +15°C° 0.2 mm 2 m/s 763 mmHg 89%
07:00 +16°C° 0.1 mm 2 m/s 763 mmHg 84%
08:00 +17°C° 0.1 mm 2 m/s 764 mmHg 79%
09:00 +18°C° 0.1 mm 2 m/s 765 mmHg 74%
10:00 +20°C° 0 mm 2 m/s 765 mmHg 67%
11:00 +21°C° 0 mm 2 m/s 765 mmHg 59%
12:00 +23°C° 0 mm 2 m/s 765 mmHg 51%
13:00 +23°C° 0 mm 2 m/s 765 mmHg 48%
14:00 +24°C° 0 mm 3 m/s 765 mmHg 46%
15:00 +24°C° 0 mm 3 m/s 765 mmHg 43%
16:00 +21°C° 0 mm 3 m/s 765 mmHg 50%
17:00 +20°C° 0 mm 3 m/s 765 mmHg 58%
18:00 +18°C° 0 mm 3 m/s 765 mmHg 65%
19:00 +18°C° 0 mm 3 m/s 766 mmHg 67%
20:00 +17°C° 0 mm 2 m/s 766 mmHg 68%
21:00 +17°C° 0 mm 2 m/s 766 mmHg 70%
22:00 +16°C° 0 mm 2 m/s 766 mmHg 71%
23:00 +16°C° 0 mm 3 m/s 766 mmHg 72%

Après-demain, 24 Octobre, Samedi

Heure Température Précipitation Vent Pression Humidité
00:00 +14°C° 0 mm 3 m/s 766 mmHg 73%
01:00 +14°C° 0 mm 3 m/s 766 mmHg 73%
02:00 +14°C° 0 mm 3 m/s 766 mmHg 73%
03:00 +14°C° 0 mm 3 m/s 766 mmHg 73%
04:00 +13°C° 0 mm 3 m/s 766 mmHg 74%
05:00 +13°C° 0 mm 3 m/s 766 mmHg 75%
06:00 +14°C° 0 mm 2 m/s 766 mmHg 76%
07:00 +15°C° 0 mm 2 m/s 766 mmHg 71%
08:00 +16°C° 0 mm 2 m/s 766 mmHg 66%
09:00 +18°C° 0 mm 2 m/s 766 mmHg 62%
10:00 +19°C° 0 mm 2 m/s 766 mmHg 56%
11:00 +20°C° 0 mm 2 m/s 766 mmHg 51%
12:00 +21°C° 0 mm 2 m/s 766 mmHg 45%
13:00 +22°C° 0 mm 3 m/s 765 mmHg 45%
14:00 +22°C° 0 mm 3 m/s 765 mmHg 45%
15:00 +22°C° 0 mm 4 m/s 765 mmHg 44%
16:00 +21°C° 0 mm 4 m/s 765 mmHg 52%
17:00 +19°C° 0 mm 4 m/s 764 mmHg 59%
18:00 +18°C° 0 mm 4 m/s 764 mmHg 66%
19:00 +17°C° 0 mm 4 m/s 765 mmHg 68%
20:00 +15°C° 0 mm 4 m/s 765 mmHg 70%
21:00 +16°C° 0 mm 3 m/s 765 mmHg 72%
22:00 +14°C° 0 mm 4 m/s 765 mmHg 74%
23:00 +14°C° 0 mm 4 m/s 765 mmHg 76%

, 25 Octobre, Dimanche

Heure Température Précipitation Vent Pression Humidité
00:00 +13°C° 0 mm 4 m/s 765 mmHg 77%
01:00 +13°C° 0 mm 3 m/s 765 mmHg 79%
02:00 +14°C° 0 mm 2 m/s 764 mmHg 81%
03:00 +13°C° 0 mm 2 m/s 764 mmHg 83%
04:00 +13°C° 0 mm 2 m/s 764 mmHg 84%
05:00 +13°C° 0 mm 2 m/s 764 mmHg 85%
06:00 +13°C° 0 mm 2 m/s 764 mmHg 87%
07:00 +14°C° 0 mm 2 m/s 764 mmHg 81%
08:00 +16°C° 0 mm 3 m/s 764 mmHg 76%
09:00 +17°C° 0 mm 3 m/s 763 mmHg 71%
10:00 +19°C° 0 mm 4 m/s 763 mmHg 68%
11:00 +20°C° 0 mm 6 m/s 763 mmHg 65%
12:00 +21°C° 0 mm 7 m/s 763 mmHg 62%
13:00 +20°C° 0.2 mm 7 m/s 763 mmHg 68%
14:00 +18°C° 0.2 mm 7 m/s 762 mmHg 74%
15:00 +17°C° 0.2 mm 8 m/s 762 mmHg 80%
16:00 +17°C° 0.4 mm 6 m/s 762 mmHg 79%
17:00 +16°C° 0.4 mm 5 m/s 763 mmHg 78%
18:00 +16°C° 0.4 mm 3 m/s 763 mmHg 77%
19:00 +14°C° 0 mm 4 m/s 763 mmHg 78%
20:00 +14°C° 0 mm 4 m/s 764 mmHg 78%
21:00 +13°C° 0 mm 4 m/s 764 mmHg 79%
22:00 +12°C° 0 mm 5 m/s 764 mmHg 79%
23:00 +12°C° 0 mm 5 m/s 765 mmHg 80%

25 Octobre, Dimanche

Heure Température Précipitation Vent Pression Humidité
00:00 +13°C° 0 mm 4 m/s 765 mmHg 77%
01:00 +13°C° 0 mm 3 m/s 765 mmHg 79%
02:00 +14°C° 0 mm 2 m/s 764 mmHg 81%
03:00 +13°C° 0 mm 2 m/s 764 mmHg 83%
04:00 +13°C° 0 mm 2 m/s 764 mmHg 84%
05:00 +13°C° 0 mm 2 m/s 764 mmHg 85%
06:00 +13°C° 0 mm 2 m/s 764 mmHg 87%
07:00 +14°C° 0 mm 2 m/s 764 mmHg 81%
08:00 +16°C° 0 mm 3 m/s 764 mmHg 76%
09:00 +17°C° 0 mm 3 m/s 763 mmHg 71%
10:00 +19°C° 0 mm 4 m/s 763 mmHg 68%
11:00 +20°C° 0 mm 6 m/s 763 mmHg 65%
12:00 +21°C° 0 mm 7 m/s 763 mmHg 62%
13:00 +20°C° 0.2 mm 7 m/s 763 mmHg 68%
14:00 +18°C° 0.2 mm 7 m/s 762 mmHg 74%
15:00 +17°C° 0.2 mm 8 m/s 762 mmHg 80%
16:00 +17°C° 0.4 mm 6 m/s 762 mmHg 79%
17:00 +16°C° 0.4 mm 5 m/s 763 mmHg 78%
18:00 +16°C° 0.4 mm 3 m/s 763 mmHg 77%
19:00 +14°C° 0 mm 4 m/s 763 mmHg 78%
20:00 +14°C° 0 mm 4 m/s 764 mmHg 78%
21:00 +13°C° 0 mm 4 m/s 764 mmHg 79%
22:00 +12°C° 0 mm 5 m/s 764 mmHg 79%
23:00 +12°C° 0 mm 5 m/s 765 mmHg 80%

26 Octobre, Lundi

Heure Température Précipitation Vent Pression Humidité
00:00 +10°C° 0 mm 5 m/s 765 mmHg 80%
01:00 +11°C° 0 mm 4 m/s 765 mmHg 81%
02:00 +11°C° 0 mm 4 m/s 765 mmHg 83%
03:00 +10°C° 0 mm 4 m/s 764 mmHg 84%
04:00 +10°C° 0 mm 4 m/s 765 mmHg 85%
05:00 +10°C° 0 mm 3 m/s 765 mmHg 85%
06:00 +10°C° 0 mm 3 m/s 765 mmHg 86%
07:00 +11°C° 0 mm 3 m/s 765 mmHg 80%
08:00 +12°C° 0 mm 3 m/s 766 mmHg 74%
09:00 +14°C° 0 mm 4 m/s 766 mmHg 68%
10:00 +15°C° 0 mm 4 m/s 766 mmHg 61%
11:00 +18°C° 0 mm 4 m/s 765 mmHg 55%
12:00 +19°C° 0 mm 4 m/s 765 mmHg 49%
13:00 +20°C° 0 mm 4 m/s 765 mmHg 48%
14:00 +20°C° 0 mm 4 m/s 764 mmHg 47%
15:00 +20°C° 0 mm 5 m/s 764 mmHg 46%
16:00 +19°C° 0 mm 4 m/s 764 mmHg 52%
17:00 +18°C° 0 mm 4 m/s 764 mmHg 59%
18:00 +15°C° 0 mm 4 m/s 764 mmHg 65%
19:00 +15°C° 0 mm 4 m/s 764 mmHg 68%
20:00 +14°C° 0 mm 4 m/s 764 mmHg 72%
21:00 +14°C° 0 mm 4 m/s 764 mmHg 76%
22:00 +13°C° 0 mm 4 m/s 764 mmHg 76%
23:00 +13°C° 0 mm 4 m/s 764 mmHg 77%

27 Octobre, Mardi

Heure Température Précipitation Vent Pression Humidité
00:00 +12°C° 0 mm 4 m/s 764 mmHg 78%
01:00 +12°C° 0 mm 4 m/s 764 mmHg 78%
02:00 +12°C° 0 mm 4 m/s 764 mmHg 79%
03:00 +11°C° 0 mm 4 m/s 763 mmHg 79%
04:00 +11°C° 0 mm 4 m/s 763 mmHg 81%
05:00 +11°C° 0 mm 4 m/s 763 mmHg 82%
06:00 +10°C° 0 mm 4 m/s 763 mmHg 83%
07:00 +11°C° 0 mm 4 m/s 763 mmHg 77%
08:00 +13°C° 0 mm 4 m/s 763 mmHg 71%
09:00 +14°C° 0 mm 4 m/s 764 mmHg 65%
10:00 +17°C° 0 mm 4 m/s 763 mmHg 58%
11:00 +18°C° 0 mm 4 m/s 763 mmHg 51%
12:00 +20°C° 0 mm 4 m/s 763 mmHg 44%
13:00 +20°C° 0 mm 4 m/s 763 mmHg 43%
14:00 +21°C° 0 mm 4 m/s 762 mmHg 42%
15:00 +21°C° 0 mm 4 m/s 762 mmHg 41%
16:00 +20°C° 0 mm 4 m/s 762 mmHg 47%
17:00 +18°C° 0 mm 4 m/s 762 mmHg 53%
18:00 +17°C° 0 mm 4 m/s 762 mmHg 59%
19:00 +15°C° 0 mm 4 m/s 762 mmHg 63%
20:00 +15°C° 0 mm 4 m/s 762 mmHg 68%
21:00 +14°C° 0 mm 4 m/s 762 mmHg 73%
22:00 +14°C° 0 mm 4 m/s 762 mmHg 75%
23:00 +13°C° 0 mm 4 m/s 762 mmHg 76%
Voir plus

Nous avons besoin de votre consentement

Meteoprog et ses fournisseurs de services peuvent stocker et accéder à des données personnelles telles que des cookies, des identifiants d'appareils ou d'autres technologies similaires sur votre appareil et traiter ces données pour personnaliser le contenu et les publicités, ainsi que pour fournir des fonctionnalités de médias sociaux et analyser le trafic.

  • Stocker et/ou accéder à des informations sur votre appareil

    Des cookies, des identifiants d'appareils ou d'autres informations peuvent être stockés ou accessibles sur votre appareil aux fins indiquées ci-dessus.

  • Annonces et contenus personnalisés, mesure des annonces et des contenus, connaissance de l'audience et développement de produits

    Les annonces et le contenu peuvent être personnalisés en fonction d'un profil. D'autres données peuvent être ajoutées pour mieux personnaliser les annonces et le contenu. Les performances des publicités et du contenu peuvent être mesurées. Il est possible d'obtenir des informations sur le public qui a vu les publicités et le contenu. Ces données peuvent être utilisées pour développer ou améliorer l'expérience de l'utilisateur, les systèmes et les logiciels.

En cliquant sur "J'accepte", vous autorisez l'utilisation de cookies, des identifiants d'appareils, des balises web ou d'autres technologies similaires. Vos paramètres peuvent être modifiés dans le navigateur de votre appareil.

Dans certains cas, des intérêts légitimes peuvent être invoqués plutôt qu'un consentement. Vous pouvez en savoir plus à ce sujet dans notre Politique de confidentialité et de cookies.